Home > Time Zones > World Clock > Weather > U.S.A. > Hilo > Past weeks

Flag for U.S.A. Weather past 2 weeks in Hilo, Hawaii, U.S.A.

Now
69 °F

Clear.


Feels Like: 69 °F
Forecast: 72 / 82 °F
Wind: 6 mph from Southwest

Location: Hilo International Airport

Current Time: Aug 28, 2014 at 3:29:22 AM

Latest Report: Aug 28, 2014 at 2:53 AM


Visibility: 10 mi

Pressure: 29.88 "Hg

Humidity: 81%

Dew point: 63 °F

Location of HiloLocation

Historic Weather in Hilo — Graph

°F

Hilo temperature yesterday

Maximum temperature yesterday: 85 °F (at 11:53 AM)
Minimum temperature yesterday: 72 °F (at 12:53 AM)
Average temperature yesterday: 78 °F

Past Weeks' High & Low Weather Summary

 TemperatureHumidityPressure
High85 °F (Aug 13, 10:53 AM)100% (Aug 20, 9:16 PM)30.06 "Hg (Aug 20, 9:16 PM)
Low69 °F (Aug 19, 5:53 AM)51% (Aug 16, 11:53 AM)29.86 "Hg (Aug 27, 3:53 PM)
Average77 °F80%29.97 "Hg
* Reported Aug 13 1:53 AM — Aug 28 1:53 AM, Hilo, Weather by CustomWeather, © 2014

Note: Actual official high and low records may vary slightly from our data, if they occured in-between our weather recording intervals... More about our weather records

Advertising

Hilo weather history for previous 24 hours

 ConditionsComfort  
Time TempWeatherWind HumidityBarometerVisibility
1:53 AM
Aug 28
70 °FClear.5 mph84%29.89 "Hg10 mi
12:53 AM71 °FClear.5 mph87%29.90 "Hg10 mi
11:53 PM
Aug 27
73 °FPassing clouds.3 mph84%29.91 "Hg10 mi
10:53 PM75 °FPassing clouds.7 mph82%29.92 "Hg10 mi
9:53 PM77 °FPartly cloudy.7 mph74%29.92 "Hg10 mi
8:53 PM78 °FPassing clouds.5 mph69%29.91 "Hg10 mi
7:53 PM79 °FOvercast.6 mph72%29.90 "Hg10 mi
6:53 PM79 °FPassing clouds.9 mph69%29.88 "Hg10 mi
5:53 PM81 °FPartly sunny.7 mph67%29.87 "Hg10 mi
4:53 PM83 °FPassing clouds.8 mph63%29.86 "Hg10 mi
3:53 PM84 °FPassing clouds.9 mph57%29.86 "Hg10 mi
2:53 PM84 °FPassing clouds.12 mph59%29.87 "Hg10 mi
1:53 PM85 °FPassing clouds.12 mph59%29.88 "Hg10 mi
12:53 PM84 °FPassing clouds.12 mph61%29.90 "Hg10 mi
11:53 AM85 °FPassing clouds.9 mph61%29.91 "Hg10 mi
10:53 AM83 °FScattered clouds.10 mph65%29.93 "Hg10 mi
9:53 AM80 °FPassing clouds.7 mph71%29.93 "Hg10 mi
8:53 AM80 °FBroken clouds.8 mph69%29.93 "Hg10 mi
7:53 AM76 °FPartly sunny.6 mph85%29.93 "Hg10 mi
6:53 AM72 °FScattered clouds.6 mph91%29.92 "Hg10 mi
5:53 AM73 °FOvercast.3 mph90%29.90 "Hg10 mi
4:53 AM72 °FPartly cloudy.5 mph91%29.89 "Hg10 mi
4:21 AM73 °FMostly cloudy.3 mph89%29.90 "Hg10 mi
3:53 AM73 °FLight rain. Overcast.6 mph90%29.89 "Hg10 mi
Weather by CustomWeather, © 2014

See weather overviewHow to use our weather pages